Showing default

GEESAT 4-10, 65128

Orbit data source: Space-Track

GEESAT 4-10, 65128 is a payload satellite owned by GeeSpace (CN) in LEO that was launched on Fri, 08 Aug 2025 UTC via a JIELONG-3 launch vehicle from the Yellow Sea Launch Area, China (YSLA). Payload-class satellites include a variety of spacecraft equipped with specific instruments for various scientific and technological missions. These include communications satellites like Starlink; space stations such as the ISS; scientific satellites like the Hubble; Earth observation satellites from companies like Planet Labs, Umbra, and HawkEye 360; GPS; miniature CubeSats for education and research; and military/defense satellites.

Loading next visibility...
Identifier
65128, 2025-170K
Orbit
LEO
Country
Flag of CNCN / PRC
Related business
Manufacturer
GWCG
Mission
Operational Commercial Navigation
Bus & Motor
GPS100, Unknown motor
Mass
130 kg wet, 130 kg dry
Launch date (UTC)
2025-08-08 (6 months ago)
Launch vehicle
JIELONG-3
Launch site
Yellow Sea Launch Area, China (YSLA)
Object type
Payload
Rocket body
Debris
Shape & HBR
Box + 2 Pan, 1.0 m
Radar Cross Section
0.833 m², Medium (>0.1 m² and < 1m²)

Expand to show TLE details & history
Last TLE update: 16 hours ago

TLE from 16 hours ago
0 GEESAT 4-10
1 65128U 25170K   26034.60311521  .00046542  00000-0  10279-2 0  9993
2 65128  49.9860  41.6343 0011829 342.1045  17.9500 15.43281150 27024
Epoch: 2026-02-03T14:28Z
TLE epoch observation values (Epoch: 2026-02-03T14:28:29.154Z)
Latitude
-0.00001°
Longitude
50.73114°
Altitude
429.323 km
Speed
7.66 km/s
True Right ascension
02h 46m 32s
True Declination
0° 00' 00"
Sunlit
Object was in daylight at epoch
Visualization orbit readout
Latitude
Unknown
Longitude
Unknown
Altitude
Unknown
Speed
Unknown
Apparent Right ascension
Unknown
Apparent Declination
Unknown
Sunlit
N/A
Visualization observer readout
Local Sidereal Time
08:36:00
Azimuth
Unknown
Elevation
Unknown
Doppler factor
Unknown
Orbital elements
Apogee altitude
445.276 km
Perigee altitude
429.152 km
Semi-major axis
6,815.351 km
Eccentricity
0.00118
Inclination
49.986°
RAAN
41.6343°
Arg. of periapsis
342.1045°
True anomaly
17.99183°
Mean anomaly
17.95°
Eccentric anomaly
17.97091°
Mean motion
3.85754 °/min
Orbital period
93.32 mins
BSTAR
0.0010279
Loading maneuver chart data...
Computing Atmospheric mass density...
Loading historical data...
Loading historical data...
Loading historical data...
Loading historical data...
Loading historical data...
Loading historical data...
Loading historical data...

Documentation

Showing up to 5 results
|